Погода Покровская

Хотите узнать прогноз погоды Покровская? Тогда Вам сюда: Погода Покровская

Поиск расширенной информации на нашем сайте:

Полезная информация:

Новости сайта



02.01.2020
Опубликован Долгосрочный прогноз погоды по городам России и ближнего зарубежья на январь 2020 года.
Карты: Прогноз на январь и февраль 2020 года, Сравнение прогнозируемой аномалии приземной температуры воздуха на январь 2020 года по разным моделям.




Погода Покровская - сегодня

Время (UTC), дата Ветер
(°,м/с) 
Видим.   Явления Облачность Т
(°С)
Тd
(°С)
f(%) Тe
(°С)
Pmin
(гПа)
dP
(гПа)
Po
(мм)
O2
(г/м3)
Тmin Tmax R s Состояние
почвы
00 30.11.20 040 (СВ) 10 км  {снег}  10/0 верхняя 
[Cs]
-31.8 -33.5 85 -38  1026.8  0.1  757  347  -35    0.2  27  равномерный
сухой снег
100% 
03 30.11.20 040 (СВ) 10 км  слаб. снег  10/0 средняя 
[As op]
-29.2 -31.6 80 -30  1026.6  -0.1  757  343           
06 30.11.20 030 (СВ) 10 км  слаб. снег  10/0 средняя 
[As op]
-27.2 -29 85 -28  1026.2  -0.2  757  341           
09 30.11.20 060 (СВ) 10 км  слаб. снег  10/0 средняя 
[As op]
-27.7 -28.9 89 -28  1026.5  0.3  757  341           
12 30.11.20 040 (СВ) 10 км  слаб. снег  10/0 средняя 
[As op]
-26.2 -27.4 90 -27  1025.7  -0.7  757  339    -22.9  0.9     
15 30.11.20 тихо ()   10 км  слаб. снег  10/0 средняя 
[As op]
-24.5 -25.7 90 -25  1024.7  -0.8  756  336           
18 30.11.20 тихо ()   10 км  слаб. снег  10/0 средняя 
[As op]
-23.2 -24.4 90 -23  1024.3  -0.4  756  334           
21 30.11.20 250 (З) 20000 м  слаб. снег  10/0 средняя 
[As op]
-19.9 -21.1 90 -23  1023.5  -0.5  755  330           
00 01.12.20 260 (З) 20000 м  слаб. снег  10/0 средняя 
[As op]
-19.6 -20.2 95 -22  1023.4  -0.1  755  329  -26.2    24  равномерный
сухой снег
100% 
03 01.12.20 240 (ЮЗ) 20000 м  слаб. снег  10/0 верхняя 
[Cs]
-18.7 -19.9 90 -23  1022.6  -0.7  755  328           
06 01.12.20 210 (ЮЗ) 20000 м  {снег}  10/0 верхняя 
[Cs]
-19.1 -21 85 -23  1021.7  -1  754  328           
09 01.12.20 тихо ()   20000 м    10/0 верхняя 
[Cs]
-25 -26.8 85 -25  1021.2  -0.8  753  336           
12 01.12.20 260 (З) 20000 м  слаб. снег  10/0 верхняя 
[Cs]
-21.4 -22.6 90 -22  1019.5  -1.5  752  331    -17.9  0.3     
15 01.12.20 220 (ЮЗ) 20000 м  {снег}  10/0 верхняя 
[Cs]
-17.8 -19 90 -20  1016.4  -2.8  750  325           
18 01.12.20 220 (ЮЗ) 20000 м  слаб. снег  10/0 средняя 
[As op]
-16.5 -17.8 90 -20  1013.9  -2.4  748  322           
21 01.12.20 240 (ЮЗ) 20000 м  слаб. снег  10/0 средняя 
[As op]
-15.4 -16 95 -19  1012.3  -1.5  747  320           
00 02.12.20 240 (ЮЗ) 10 км  слаб. снег  10/0 средняя 
[As op]
-15.6 -16.2 95 -16  1011.4  -0.9  746  320  -21.4    0.6  25  равномерный
сухой снег
100% 
03 02.12.20 270 (З) 10 км  слаб. снег  10/0 средняя 
[As op]
-15.7 -17 90 -18  1011.8  0.4  747  321           
06 02.12.20 240 (ЮЗ) 20000 м  {снег}  10/0 верхняя 
[Cs]
-16.5 -17.8 90 -19  1012  0.2  747  322           
09 02.12.20 250 (З) 10 км  слаб. снег  10/0 средняя 
[As op]
-18.8 -19.4 95 -19  1011.6  -0.5  747  325           
12 02.12.20 220 (ЮЗ) 10 км  слаб. снег  10/0 средняя 
[As op]
-15.8 -16.4 95 -21  1009.2  -2.3  745  320    -15.3  0.6     
15 02.12.20 220 (ЮЗ) 10 км  слаб. снег  10/0 средняя 
[As op]
-13.1 -13.7 95 -17  1006.7  -2.2  743  316           
18 02.12.20 240 (ЮЗ) 10 км  слаб. снег  10/0 средняя 
[As op]
-11.6 -12.2 95 -16  1005.6  -1.1  742  314           
21 02.12.20 240 (ЮЗ) 10 км  слаб. снег  10/0 средняя 
[As op]
-12 -12.6 95 -14  1005.4  -0.2  742  314           
00 03.12.20 220 (ЮЗ) 20000 м  слаб. снег  10/0 средняя 
[As op]
-12.4 -13 95 -14  1005.2  -0.2  742  314  -15.8    25  равномерный
сухой снег
100% 
Время (UTC), дата Ветер
(°,м/с) 
Видим.   Явления Облачность Т
(°С)
Тd
(°С)
f(%) Тe
(°С)
Pmin
(гПа)
dP
(гПа)
Po
(мм)
O2
(г/м3)
Тmin Tmax R s Состояние
почвы

Для получения пояснительной информации подведите курсор к названию столбца.

ПОГОДА Покровская - архив

Всё, что Вы хотите узнать о погоде Покровская - удобно и подробно!

Выберите нужную дату (начиная с 1 января 2019* года) и нажмите кнопку "Найти".
Будут отображены архивные сводки погоды по пункту Покровская, начиная с указанной даты.


Отображать данные в формате CSV (для использования в таблицах Excel)


Внимание! Наш архив погоды предназначен исключительно для личного некоммерческого использования в познавательных целях. Если Вам необходимы официальные справки о состоянии погоды (для производственных, юридических, коммерческих и т.п. целей), обращайтесь в органы Росгидромета.

*Примечание: данная дата относится к архиву по метеостанциям СССР (Россия, СНГ, Балтия).
Архив по метеостанциям Зарубежной Европы и Азии (кроме Китая) хранится 10 дней, по другим регионам земного шара (Китай, Африка, Америка, Австралия, Океания) - 1 день.

Покровская - район местоположения метеостанции


Название, широта, долгота, высота метеостанции:
Покровская 61.5°ш. 129.2°д. 115 м над ур. моря [Российская Федерация]

Дополнительная информация

В oтличие oт бoльшинства пoгoдных сайтoв мы публикуем пoдрoбную метеoинфoрмацию в детальнoм прoфессиoнальнoм фoрмате.

Характеристики температуры и влажнoсти вoздуха измеряются на высoте 2 м в тени вдали oт зданий и деревьев.
Скoрoсть ветра измеряется на высoте 10 м (на урoвне рoста челoвека скoрoсть ветра ниже в 1.5-2 раза). Если метеoстанция нахoдится в гoрoде или в лесу, тo скoрoсть ветра занижена на 2-4 м/с пo сравнению с oткрытым местoм. Скoрoсть ветра над акватoриями крупных рек и oзёр, а также на вершинах хoлмoв на 2-5 м/с выше, чем в oбычных услoвиях.
Атмoсфернoе давление в разных тoчках местнoсти мoжет значительнo oтличаться oт давления на метеoстанции, в зависимoсти oт услoвий рельефа (при пoдъёме на 10 м давление пoнижается примернo на 1 мм рт.ст.).